TimePDT,TemperatureF,Dew PointF,Humidity,Sea Level PressureIn,VisibilityMPH,Wind Direction,Wind SpeedMPH,Gust SpeedMPH,PrecipitationIn,Events,Conditions,WindDirDegrees,DateUTC
12:53 AM,51.1,48.0,89,30.10,10.0,Calm,Calm,-,N/A,,Clear,0,2013-07-03 07:53:00
1:53 AM,50.0,48.0,93,30.12,10.0,Calm,Calm,-,N/A,,Clear,0,2013-07-03 08:53:00
2:53 AM,48.9,46.9,93,30.12,10.0,Calm,Calm,-,N/A,,Clear,0,2013-07-03 09:53:00
3:53 AM,46.9,46.0,97,30.13,10.0,Calm,Calm,-,N/A,,Clear,0,2013-07-03 10:53:00
4:53 AM,46.0,45.0,96,30.14,10.0,Calm,Calm,-,N/A,,Clear,0,2013-07-03 11:53:00
5:53 AM,48.9,48.0,97,30.15,10.0,Calm,Calm,-,N/A,,Clear,0,2013-07-03 12:53:00
6:53 AM,54.0,51.1,90,30.16,10.0,Calm,Calm,-,N/A,,Clear,0,2013-07-03 13:53:00
7:53 AM,57.0,51.1,81,30.16,10.0,ESE,4.6,-,N/A,,Clear,120,2013-07-03 14:53:00
8:53 AM,59.0,52.0,78,30.17,10.0,ESE,4.6,-,N/A,,Clear,120,2013-07-03 15:53:00
9:53 AM,62.1,52.0,70,30.17,10.0,East,3.5,-,N/A,,Clear,100,2013-07-03 16:53:00
10:53 AM,64.9,53.1,65,30.17,10.0,East,3.5,-,N/A,,Clear,100,2013-07-03 17:53:00
11:53 AM,66.9,53.1,61,30.16,10.0,ESE,5.8,-,N/A,,Clear,120,2013-07-03 18:53:00
12:53 PM,69.1,51.1,53,30.16,10.0,ESE,5.8,-,N/A,,Clear,110,2013-07-03 19:53:00
1:53 PM,72.0,53.1,51,30.14,10.0,SE,6.9,-,N/A,,Clear,130,2013-07-03 20:53:00
2:53 PM,72.0,53.1,51,30.13,10.0,SSE,5.8,-,N/A,,Clear,150,2013-07-03 21:53:00
3:53 PM,71.1,52.0,51,30.12,10.0,ESE,8.1,-,N/A,,Clear,110,2013-07-03 22:53:00
4:53 PM,66.9,52.0,59,30.10,10.0,SW,9.2,-,N/A,,Clear,220,2013-07-03 23:53:00
5:53 PM,62.1,50.0,65,30.08,10.0,SSW,6.9,-,N/A,,Clear,200,2013-07-04 00:53:00
6:53 PM,62.1,48.9,62,30.06,10.0,Variable,3.5,-,N/A,,Clear,0,2013-07-04 01:53:00
7:53 PM,61.0,46.0,58,30.05,10.0,Calm,Calm,-,N/A,,Clear,0,2013-07-04 02:53:00
8:53 PM,57.0,48.9,74,30.05,10.0,Calm,Calm,-,N/A,,Clear,0,2013-07-04 03:53:00
9:53 PM,55.0,50.0,83,30.06,10.0,Variable,4.6,-,N/A,,Clear,0,2013-07-04 04:53:00
10:53 PM,55.0,51.1,86,30.06,10.0,WSW,8.1,-,N/A,,Clear,240,2013-07-04 05:53:00
11:53 PM,55.0,51.1,86,30.06,10.0,Variable,3.5,-,N/A,,Clear,0,2013-07-04 06:53:00